Year,Month,Day,Hour,Minute,Value (Times are PST for temperature in C)
2014,11,17,08,21,3.60
2014,11,17,08,22,3.70
2014,11,17,08,23,3.70
2014,11,17,08,24,3.70
2014,11,17,08,25,3.80
2014,11,17,08,26,3.80
2014,11,17,08,27,3.80
2014,11,17,08,28,3.80
2014,11,17,08,29,3.80
2014,11,17,08,30,3.80
2014,11,17,08,31,3.80
2014,11,17,08,32,3.80
2014,11,17,08,33,3.90
2014,11,17,08,34,3.90
2014,11,17,08,35,3.90
2014,11,17,08,36,4.00
2014,11,17,08,37,4.00
2014,11,17,08,38,4.00
2014,11,17,08,39,4.00
2014,11,17,08,40,4.00
2014,11,17,08,41,4.10
2014,11,17,08,42,4.10
2014,11,17,08,43,4.20
2014,11,17,08,44,4.20
2014,11,17,08,45,4.20
2014,11,17,08,46,4.30
2014,11,17,08,47,4.30
2014,11,17,08,48,4.40
2014,11,17,08,49,4.40
2014,11,17,08,50,4.50
2014,11,17,08,51,4.50
2014,11,17,08,52,4.60
2014,11,17,08,53,4.60
2014,11,17,08,54,4.60
2014,11,17,08,55,4.70
2014,11,17,08,56,4.70
2014,11,17,08,57,4.70
2014,11,17,08,58,4.80
2014,11,17,08,59,4.80
2014,11,17,09,00,4.80
2014,11,17,09,01,4.90
2014,11,17,09,02,4.90
2014,11,17,09,03,4.90
2014,11,17,09,04,4.90
2014,11,17,09,05,4.90
2014,11,17,09,06,5.00
2014,11,17,09,07,5.10
2014,11,17,09,08,5.10
2014,11,17,09,09,5.10
2014,11,17,09,10,5.10
2014,11,17,09,11,5.10
2014,11,17,09,12,5.10
2014,11,17,09,13,5.10
2014,11,17,09,14,5.10
2014,11,17,09,15,5.10
2014,11,17,09,16,5.10
2014,11,17,09,17,5.10
2014,11,17,09,18,5.10
2014,11,17,09,19,5.20
2014,11,17,09,20,5.20
2014,11,17,09,21,5.20
2014,11,17,09,22,5.30
2014,11,17,09,23,5.30
2014,11,17,09,24,5.30
2014,11,17,09,25,5.30
2014,11,17,09,26,5.30
2014,11,17,09,27,5.30
2014,11,17,09,28,5.30
2014,11,17,09,29,5.30
2014,11,17,09,30,5.30
2014,11,17,09,31,5.40
2014,11,17,09,32,5.40
2014,11,17,09,33,5.40
2014,11,17,09,34,5.40
2014,11,17,09,35,5.30
2014,11,17,09,36,5.30
2014,11,17,09,37,5.30
2014,11,17,09,38,5.30
2014,11,17,09,39,5.30
2014,11,17,09,40,5.30
2014,11,17,09,41,5.30
2014,11,17,09,42,5.30
2014,11,17,09,43,5.30
2014,11,17,09,44,5.40
2014,11,17,09,45,5.40
2014,11,17,09,46,5.40
2014,11,17,09,47,5.40
2014,11,17,09,48,5.40
2014,11,17,09,49,5.40
2014,11,17,09,50,5.40
2014,11,17,09,51,5.40
2014,11,17,09,52,5.40
2014,11,17,09,53,5.50
2014,11,17,09,54,5.50
2014,11,17,09,55,5.60
2014,11,17,09,56,5.60
2014,11,17,09,57,5.60
2014,11,17,09,58,5.70
2014,11,17,09,59,5.70
2014,11,17,10,00,5.70
2014,11,17,10,01,5.80
2014,11,17,10,02,5.80
2014,11,17,10,03,5.80
2014,11,17,10,04,5.80
2014,11,17,10,05,5.80
2014,11,17,10,06,5.80
2014,11,17,10,07,5.80
2014,11,17,10,08,5.80
2014,11,17,10,09,5.80
2014,11,17,10,10,5.80
2014,11,17,10,11,5.80
2014,11,17,10,12,5.80
2014,11,17,10,13,5.80
2014,11,17,10,14,5.70
2014,11,17,10,15,5.80
2014,11,17,10,16,5.80
2014,11,17,10,17,5.80
2014,11,17,10,18,5.80
2014,11,17,10,19,5.80
2014,11,17,10,20,5.80
2014,11,17,10,21,5.80
2014,11,17,10,22,5.80
2014,11,17,10,23,5.80
2014,11,17,10,24,5.80
2014,11,17,10,25,5.80
2014,11,17,10,26,5.90
2014,11,17,10,27,5.90
2014,11,17,10,28,5.90
2014,11,17,10,29,6.00
2014,11,17,10,30,6.00
2014,11,17,10,31,6.00
2014,11,17,10,32,6.00
2014,11,17,10,33,6.00
2014,11,17,10,34,6.00
2014,11,17,10,35,6.00
2014,11,17,10,36,6.00
2014,11,17,10,37,6.00
2014,11,17,10,38,6.00
2014,11,17,10,39,6.00
2014,11,17,10,40,6.00
2014,11,17,10,41,6.00
2014,11,17,10,42,6.10
2014,11,17,10,43,6.20
2014,11,17,10,44,6.20
2014,11,17,10,45,6.20
2014,11,17,10,46,6.20
2014,11,17,10,47,6.20
2014,11,17,10,48,6.20
2014,11,17,10,49,6.20
2014,11,17,10,50,6.20
2014,11,17,10,51,6.20
2014,11,17,10,52,6.30
2014,11,17,10,53,6.30
2014,11,17,10,54,6.40
2014,11,17,10,55,6.40
2014,11,17,10,56,6.40
2014,11,17,10,57,6.40
2014,11,17,10,58,6.40
2014,11,17,10,59,6.40
2014,11,17,11,00,6.40
2014,11,17,11,01,6.40
2014,11,17,11,02,6.40
2014,11,17,11,03,6.40
2014,11,17,11,04,6.40
2014,11,17,11,05,6.40
2014,11,17,11,06,6.30
2014,11,17,11,07,6.30
2014,11,17,11,08,6.30
2014,11,17,11,09,6.30
2014,11,17,11,10,6.30
2014,11,17,11,11,6.30
2014,11,17,11,12,6.30
2014,11,17,11,13,6.40
2014,11,17,11,14,6.40
2014,11,17,11,15,6.40
2014,11,17,11,16,6.40
2014,11,17,11,17,6.40
2014,11,17,11,18,6.50
2014,11,17,11,19,6.60
2014,11,17,11,20,6.60
2014,11,17,11,21,6.60
2014,11,17,11,22,6.60
2014,11,17,11,23,6.70
2014,11,17,11,24,6.70
2014,11,17,11,25,6.70
2014,11,17,11,26,6.80
2014,11,17,11,27,6.80
2014,11,17,11,28,6.80
2014,11,17,11,29,6.80
2014,11,17,11,30,6.90
2014,11,17,11,31,6.90
2014,11,17,11,32,6.90
2014,11,17,11,33,7.00
2014,11,17,11,34,7.00
2014,11,17,11,35,7.00
2014,11,17,11,36,7.00
2014,11,17,11,37,6.90
2014,11,17,11,38,6.90
2014,11,17,11,39,6.90
2014,11,17,11,40,6.90
2014,11,17,11,41,6.90
2014,11,17,11,42,6.90
2014,11,17,11,43,6.90
2014,11,17,11,44,6.90
2014,11,17,11,45,6.90
2014,11,17,11,46,7.00
2014,11,17,11,47,7.00
2014,11,17,11,48,7.10
2014,11,17,11,49,7.20
2014,11,17,11,50,7.30
2014,11,17,11,51,7.30
2014,11,17,11,52,7.30
2014,11,17,11,53,7.30
2014,11,17,11,54,7.30
2014,11,17,11,55,7.30
2014,11,17,11,56,7.30
2014,11,17,11,57,7.30
2014,11,17,11,58,7.40
2014,11,17,11,59,7.40
2014,11,17,12,00,7.50
2014,11,17,12,01,7.50
2014,11,17,12,02,7.40
2014,11,17,12,03,7.40
2014,11,17,12,04,7.40
2014,11,17,12,05,7.30
2014,11,17,12,06,7.30
2014,11,17,12,07,7.30
2014,11,17,12,08,7.30
2014,11,17,12,09,7.30
2014,11,17,12,10,7.30
2014,11,17,12,11,7.30
2014,11,17,12,12,7.30
2014,11,17,12,13,7.30
2014,11,17,12,14,7.40
2014,11,17,12,15,7.40
2014,11,17,12,16,7.40
2014,11,17,12,17,7.40
2014,11,17,12,18,7.50
2014,11,17,12,19,7.50
2014,11,17,12,20,7.60
2014,11,17,12,21,7.60
2014,11,17,12,22,7.60
2014,11,17,12,23,7.60
2014,11,17,12,24,7.70
2014,11,17,12,25,7.70
2014,11,17,12,26,7.70
2014,11,17,12,27,7.60
2014,11,17,12,28,7.60
2014,11,17,12,29,7.70
2014,11,17,12,30,7.70
2014,11,17,12,31,7.70
2014,11,17,12,32,7.70
2014,11,17,12,33,7.80
2014,11,17,12,34,7.80
2014,11,17,12,35,7.80
2014,11,17,12,36,7.80
2014,11,17,12,37,7.70
2014,11,17,12,38,7.70
2014,11,17,12,39,7.70
2014,11,17,12,40,7.70
2014,11,17,12,41,7.70
2014,11,17,12,42,7.80
2014,11,17,12,43,7.80
2014,11,17,12,44,7.80
2014,11,17,12,45,7.80
2014,11,17,12,46,7.80
2014,11,17,12,47,7.80
2014,11,17,12,48,7.80
2014,11,17,12,49,7.80
2014,11,17,12,50,7.80
2014,11,17,12,51,7.80
2014,11,17,12,52,7.80
2014,11,17,12,53,7.80
2014,11,17,12,54,7.80
2014,11,17,12,55,7.70
2014,11,17,12,56,7.70
2014,11,17,12,57,7.70
2014,11,17,12,58,7.70
2014,11,17,12,59,7.70
2014,11,17,13,00,7.70
2014,11,17,13,01,7.70
2014,11,17,13,02,7.70
2014,11,17,13,03,7.60
2014,11,17,13,04,7.60
2014,11,17,13,05,7.60
2014,11,17,13,06,7.70
2014,11,17,13,07,7.70
2014,11,17,13,08,7.70
2014,11,17,13,09,7.80
2014,11,17,13,10,7.80
2014,11,17,13,11,7.80
2014,11,17,13,12,7.80
2014,11,17,13,13,7.80
2014,11,17,13,14,7.80
2014,11,17,13,15,7.80
2014,11,17,13,16,7.80
2014,11,17,13,17,7.80
2014,11,17,13,18,7.80
2014,11,17,13,19,7.80
2014,11,17,13,20,7.80
2014,11,17,13,21,7.80
2014,11,17,13,22,7.80
2014,11,17,13,23,7.80
2014,11,17,13,24,7.80
2014,11,17,13,25,7.80
2014,11,17,13,26,7.90
2014,11,17,13,27,7.90
2014,11,17,13,28,7.90
2014,11,17,13,29,8.00
2014,11,17,13,30,8.00
2014,11,17,13,31,8.10
2014,11,17,13,32,8.10
2014,11,17,13,33,8.10
2014,11,17,13,34,8.10
2014,11,17,13,35,8.00
2014,11,17,13,36,8.00
2014,11,17,13,37,8.00
2014,11,17,13,38,8.00
2014,11,17,13,39,7.90
2014,11,17,13,40,7.90
2014,11,17,13,41,7.90
2014,11,17,13,42,7.80
2014,11,17,13,43,7.80
2014,11,17,13,44,7.80
2014,11,17,13,45,7.80
2014,11,17,13,46,7.80
2014,11,17,13,47,7.80
2014,11,17,13,48,7.80
2014,11,17,13,49,7.80
2014,11,17,13,50,7.80
2014,11,17,13,51,7.80
2014,11,17,13,52,7.80
2014,11,17,13,53,7.80
2014,11,17,13,54,7.80
2014,11,17,13,55,7.80
2014,11,17,13,56,7.80
2014,11,17,13,57,7.80
2014,11,17,13,58,7.80
2014,11,17,13,59,7.80
2014,11,17,14,00,7.80
2014,11,17,14,01,7.80
2014,11,17,14,02,7.80
2014,11,17,14,03,7.80
2014,11,17,14,04,7.80
2014,11,17,14,05,7.80
2014,11,17,14,06,7.80
2014,11,17,14,07,7.80
2014,11,17,14,08,7.80
2014,11,17,14,09,7.80
2014,11,17,14,10,7.80
2014,11,17,14,11,7.80
2014,11,17,14,12,7.80
2014,11,17,14,13,7.80
2014,11,17,14,14,7.90
2014,11,17,14,15,7.90
2014,11,17,14,16,7.90
2014,11,17,14,17,7.90
2014,11,17,14,18,7.90
2014,11,17,14,19,7.90
2014,11,17,14,20,7.90
2014,11,17,14,21,8.00
2014,11,17,14,22,8.00
2014,11,17,14,23,8.00
2014,11,17,14,24,8.00
2014,11,17,14,25,8.00
2014,11,17,14,26,8.00
2014,11,17,14,27,8.00
2014,11,17,14,28,8.10
2014,11,17,14,29,8.10
2014,11,17,14,30,8.10
2014,11,17,14,31,8.10
2014,11,17,14,32,8.10
2014,11,17,14,33,8.10
2014,11,17,14,34,8.20
2014,11,17,14,35,8.20
2014,11,17,14,36,8.20
2014,11,17,14,37,8.10
2014,11,17,14,38,8.10
2014,11,17,14,39,8.10
2014,11,17,14,40,8.10
2014,11,17,14,41,8.10
2014,11,17,14,42,8.10
2014,11,17,14,43,8.10
2014,11,17,14,44,8.10
2014,11,17,14,45,8.10
2014,11,17,14,46,8.10
2014,11,17,14,47,8.10
2014,11,17,14,48,8.10
2014,11,17,14,49,8.10
2014,11,17,14,50,8.00
2014,11,17,14,51,8.00
2014,11,17,14,52,8.00
2014,11,17,14,53,8.10
2014,11,17,14,54,8.10
2014,11,17,14,55,8.10
2014,11,17,14,56,8.10
2014,11,17,14,57,8.10
2014,11,17,14,58,8.10
2014,11,17,14,59,8.10
2014,11,17,15,00,8.00
2014,11,17,15,01,8.00
2014,11,17,15,02,8.00
2014,11,17,15,03,7.90
2014,11,17,15,04,7.90
2014,11,17,15,05,7.90
2014,11,17,15,06,7.90
2014,11,17,15,07,7.90
2014,11,17,15,08,7.90
2014,11,17,15,09,7.90
2014,11,17,15,10,7.90
2014,11,17,15,11,7.80
2014,11,17,15,12,7.80
2014,11,17,15,13,7.80
2014,11,17,15,14,7.80
2014,11,17,15,15,7.80
2014,11,17,15,16,7.70
2014,11,17,15,17,7.70
2014,11,17,15,18,7.60
2014,11,17,15,19,7.60
2014,11,17,15,20,7.60
2014,11,17,15,21,7.60
2014,11,17,15,22,7.60
2014,11,17,15,23,7.60
2014,11,17,15,24,7.60
2014,11,17,15,25,7.50
2014,11,17,15,26,7.50
2014,11,17,15,27,7.50
2014,11,17,15,28,7.50
2014,11,17,15,29,7.50
2014,11,17,15,30,7.40
2014,11,17,15,31,7.40
2014,11,17,15,32,7.40
2014,11,17,15,33,7.40
2014,11,17,15,34,7.40
2014,11,17,15,35,7.40
2014,11,17,15,36,7.40
2014,11,17,15,37,7.30
2014,11,17,15,38,7.30
2014,11,17,15,39,7.30
2014,11,17,15,40,7.30
2014,11,17,15,41,7.30
2014,11,17,15,42,7.30
2014,11,17,15,43,7.30
2014,11,17,15,44,7.30
2014,11,17,15,45,7.30
2014,11,17,15,46,7.30
2014,11,17,15,47,7.30
2014,11,17,15,48,7.30
2014,11,17,15,49,7.30
2014,11,17,15,50,7.30
2014,11,17,15,51,7.20
2014,11,17,15,52,7.20
2014,11,17,15,53,7.20
2014,11,17,15,54,7.20
2014,11,17,15,55,7.20
2014,11,17,15,56,7.10
2014,11,17,15,57,7.10
2014,11,17,15,58,7.10
2014,11,17,15,59,7.10
2014,11,17,16,00,7.10
2014,11,17,16,01,7.10
2014,11,17,16,02,7.10
2014,11,17,16,03,7.10
2014,11,17,16,04,7.10
2014,11,17,16,05,7.00
2014,11,17,16,06,7.00
2014,11,17,16,07,7.00
2014,11,17,16,08,7.00
2014,11,17,16,09,6.90
2014,11,17,16,10,6.90
2014,11,17,16,11,6.90
2014,11,17,16,12,6.90
2014,11,17,16,13,6.90
2014,11,17,16,14,6.90
2014,11,17,16,15,6.90
2014,11,17,16,16,6.90
2014,11,17,16,17,6.90
2014,11,17,16,18,6.90
2014,11,17,16,19,6.90
2014,11,17,16,20,6.90
2014,11,17,16,21,6.90
2014,11,17,16,22,6.90
2014,11,17,16,23,6.90
2014,11,17,16,24,6.90
